Voltar ao catálogo

COSMOS 374 DEB

AtivoLEO
NORAD 4699·DEBRIS·🇷🇺 Russia

Lançado Oct 23, 1970 de Baikonur Cosmodrome

Loading…

Próximas Passagens (próximas 24 horas)

TLE

AtualizadoSource: Space-Track

Época: Sep 14, 2026, 05:59 UTC

1 04699U 70089R   26257.24968569  .00004408  00000-0  45737-3 0  9998
2 04699  62.9145 142.0593 0175624 210.7491 148.3219 14.80679758724972

Acompanhe COSMOS 374 DEB em tempo real com AllMySat

Download on the App Store